Home > Weather > Tegucigalpa > Past weeks

Flag for Honduras Weather for the Past 2 Weeks in Tegucigalpa, Honduras

Now
82 °F

Thunderstorms. Broken clouds.


Feels Like: 85 °F
Forecast: N/A
Wind: 16 mph from South

Location: Tegucigalpa Airport

Current Time: Apr 28, 2016 at 4:04:07 PM

Latest Report: Apr 28, 2016 at 3:00 PM


Visibility: N/A

Pressure: 29.95 "Hg (26.57 "Hg at 1054m altitude)

Humidity: 62%

Dew Point: 68 °F

Location of TegucigalpaLocation

Historic Weather in Tegucigalpa — Graph

°F

Tegucigalpa Temperature Yesterday

Maximum temperature yesterday: 88 °F (at 2:00 PM)
Minimum temperature yesterday: 64 °F (at 5:00 AM)
Average temperature yesterday: 77 °F

High & Low Weather Summary for the Past Weeks

 TemperatureHumidityPressure
High93 °F (Apr 25, 3:00 PM)100% (Apr 14, 4:00 AM)30.12 "Hg (Apr 14, 4:00 AM)
Low64 °F (Apr 14, 5:00 AM)29% (Apr 13, 2:00 PM)29.86 "Hg (Apr 19, 8:00 PM)
Average78 °F64%30.02 "Hg
* Reported Apr 13 2:00 PM — Apr 28 2:00 PM, Tegucigalpa, Weather by CustomWeather, © 2016

Note: Actual official high and low records may vary slightly from our data, if they occured in-between our weather recording intervals... More about our weather records

Advertising

Tegucigalpa Weather History for the Previous 24 Hours

Scroll right to see more
 ConditionsComfort  
Time TempWeatherWind HumidityBarometerVisibility
2:00 PM
Thu, Apr 28
86 °FBroken clouds.12 mph52%29.98 "HgN/A
1:00 PM86 °FBroken clouds.9 mph49%30.01 "HgN/A
12:00 PM86 °FBroken clouds.12 mph52%30.04 "Hg6 mi
11:00 AM86 °FBroken clouds.2 mph52%30.04 "Hg5 mi
10:00 AM82 °FBroken clouds.5 mph62%30.07 "Hg4 mi
9:00 AM81 °FPartly sunny.5 mph66%30.07 "Hg4 mi
8:00 AM75 °FPartly sunny.No wind83%30.07 "Hg2 mi
7:00 AM72 °FBroken clouds.No wind94%30.07 "Hg2 mi
6:00 AM68 °FFog.No wind100%30.04 "Hg2 mi
5:00 AM68 °FFog.No wind100%30.01 "Hg3 mi
4:00 AM70 °FPassing clouds.3 mph94%29.98 "Hg4 mi
3:00 AM70 °FPassing clouds.2 mph94%29.98 "Hg5 mi
2:00 AM70 °FClear.2 mph100%29.98 "Hg5 mi
1:00 AM72 °FClear.No wind94%30.01 "Hg5 mi
12:00 AM72 °FPassing clouds.7 mph94%30.01 "HgN/A
11:00 PM
Wed, Apr 27
73 °FPassing clouds.3 mph89%30.01 "HgN/A
10:00 PM73 °FClear.5 mph89%30.01 "Hg10 mi
9:00 PM75 °FClear.2 mph83%29.98 "Hg10 mi
8:00 PM77 °FClear.13 mph79%29.98 "Hg10 mi
7:00 PM77 °FClear.12 mph79%29.95 "Hg10 mi
6:00 PM81 °FPartly sunny.9 mph70%29.92 "HgN/A
5:00 PM84 °FPartly sunny.9 mph58%29.89 "HgN/A
4:00 PM84 °FPartly sunny.12 mph58%29.89 "HgN/A
Weather by CustomWeather, © 2016

See weather overviewHow to use our weather pages